Carbondale, IL

9:22 AM CDT on May 29, 2017 (GMT -0500)
Southern Illinois

Weather History for KMDH - February, 2014

Change the Weather History Date:

Wednesday, February 26, 2014

  Actual Average Record
Temperature  
Mean Temperature 21 °F -  
Max Temperature 27 °F 47 °F 78 °F (1917)
Min Temperature 15 °F 27 °F 10 °F (1963)
Degree Days  
Heating Degree Days 44    
Moisture  
Dew Point 6 °F    
Average Humidity 56    
Maximum Humidity 78    
Minimum Humidity 31    
Precipitation  
Precipitation 0.00 in - - ()
Sea Level Pressure  
Sea Level Pressure 30.22 in    
Wind  
Wind Speed 13 mph (NW)    
Max Wind Speed 22 mph    
Max Gust Speed 33 mph    
Visibility 10 miles    
Events Snow    
Averages and records for this station are not official NWS values.
T = Trace of Precipitation, MM = Missing Value Source: NWS Daily Summary

Daily Weather History Graph

Daily Weather History Graph

Search for Another Location

Airport or City:

Trip Planner

Search our weather history database for the weather conditions in past years. The results will help you decide how hot, cold, wet, or windy it might be!

Date:

Astronomy

Feb. 26, 2014 Rise Set
Actual Time 6:32 AM CST 5:47 PM CST
Civil Twilight 6:06 AM CST 6:14 PM CST
Nautical Twilight 5:35 AM CST 6:44 PM CST
Astronomical Twilight 5:05 AM CST 7:14 PM CST
Moon 4:16 AM CST (2/26) 3:04 PM CST (2/26)
Length of Visible Light 12h 07m
Length of Day
11h 15m
Waning Crescent, 10% of the Moon is Illuminated
Feb 26
Waning Crescent
Mar 1
New
Mar 8
First Quarter
Mar 16
Full
Mar 23
Last Quarter

Hourly Weather History & Observations

Time (CST) Temp. Windchill Dew Point Humidity Pressure Visibility Wind Dir Wind Speed Gust Speed Precip Events Conditions
12:19 AM 23.0 °F 11.1 °F 16.0 °F 74% 30.28 in 9.0 mi NNW 12.7 mph 23.0 mph 0.00 in Snow Light Snow
12:40 AM 23.0 °F 8.7 °F 17.1 °F 78% 30.29 in 2.5 mi NNW 18.4 mph 25.3 mph 0.00 in Snow Light Snow
12:52 AM 21.9 °F 7.8 °F 16.0 °F 78% 30.30 in 4.0 mi NNW 17.3 mph - 0.00 in Snow Light Snow
1:12 AM 21.9 °F 8.2 °F 12.9 °F 68% 30.29 in 10.0 mi NNW 16.1 mph 24.2 mph 0.00 in   Overcast
1:52 AM 19.9 °F 3.5 °F 5.0 °F 52% 30.33 in 10.0 mi NNW 21.9 mph 33.4 mph 0.00 in   Overcast
2:52 AM 18.0 °F 4.2 °F 7.0 °F 62% 30.32 in 10.0 mi North 13.8 mph 21.9 mph 0.00 in   Mostly Cloudy
3:52 AM 18.0 °F 3.1 °F 5.0 °F 57% 30.31 in 10.0 mi North 16.1 mph - N/A   Clear
4:52 AM 17.1 °F 2.0 °F 3.0 °F 54% 30.33 in 10.0 mi North 16.1 mph - N/A   Partly Cloudy
5:52 AM 16.0 °F 1.7 °F 3.9 °F 59% 30.34 in 10.0 mi North 13.8 mph - N/A   Scattered Clouds
6:52 AM 16.0 °F 2.9 °F 5.0 °F 62% 30.34 in 10.0 mi North 11.5 mph - N/A   Mostly Cloudy
7:52 AM 15.1 °F 1.1 °F 1.9 °F 56% 30.34 in 10.0 mi NNW 12.7 mph - N/A   Mostly Cloudy
8:52 AM 15.1 °F 0.5 °F 3.0 °F 59% 30.34 in 10.0 mi NNW 13.8 mph - N/A   Mostly Cloudy
8:59 AM 16.0 °F 2.3 °F 3.0 °F 57% 30.32 in 10.0 mi North 12.7 mph - N/A   Mostly Cloudy
9:08 AM 18.0 °F 6.1 °F 3.9 °F 54% 30.32 in 10.0 mi North 10.4 mph - N/A   Partly Cloudy
9:52 AM 18.0 °F 6.9 °F 1.9 °F 50% 30.34 in 10.0 mi North 9.2 mph - N/A   Partly Cloudy
10:52 AM 19.9 °F 8.6 °F 1.0 °F 44% 30.32 in 10.0 mi North 10.4 mph - N/A   Clear
11:52 AM 21.0 °F 9.3 °F 3.0 °F 46% 30.28 in 10.0 mi NW 11.5 mph - N/A   Clear
12:52 PM 23.0 °F 11.7 °F -0.0 °F 37% 30.23 in 10.0 mi NNW 11.5 mph - N/A   Clear
1:52 PM 25.0 °F 13.1 °F 3.9 °F 41% 30.18 in 10.0 mi North 13.8 mph - N/A   Clear
2:52 PM 26.1 °F 15.6 °F 3.0 °F 37% 30.16 in 10.0 mi NW 11.5 mph - N/A   Clear
3:52 PM 27.0 °F 18.7 °F -0.0 °F 31% 30.12 in 10.0 mi NW 8.1 mph - N/A   Clear
4:52 PM 27.0 °F 18.7 °F 1.9 °F 34% 30.10 in 10.0 mi West 8.1 mph - N/A   Clear
5:52 PM 23.0 °F 17.0 °F 7.0 °F 50% 30.08 in 10.0 mi WSW 4.6 mph - N/A   Clear
6:52 PM 21.9 °F - 6.1 °F 51% 30.06 in 10.0 mi Calm Calm - N/A   Clear
7:52 PM 19.0 °F 10.0 °F 9.0 °F 65% 30.04 in 10.0 mi SSW 6.9 mph - N/A   Clear
8:52 PM 18.0 °F 9.8 °F 9.0 °F 68% 30.04 in 10.0 mi SSW 5.8 mph - N/A   Clear
9:52 PM 19.0 °F 13.9 °F 8.1 °F 62% 30.04 in 10.0 mi SW 3.5 mph - N/A   Clear
10:52 PM 19.0 °F 13.9 °F 7.0 °F 59% 30.04 in 10.0 mi South 3.5 mph - N/A   Clear
11:52 PM 18.0 °F 11.1 °F 8.1 °F 65% 30.02 in 10.0 mi South 4.6 mph - N/A   Clear